This demonstration page uses our WeatherBlox Daily Observations layout. Learn more.

39.92423, -83.80882

Hourly Observations for September 12, 2017

Temp ( °F °C ) Dew Point ( °F °C ) Humidity (%) Winds ( mph kmh ) Pressure ( in mb ) Visibility ( mi km ) Precip ( " mm )
12:56 am 00:56 Clear 54 12.2 51 10.6 90 90 ENE 7 11 30.03 1017 10 16.09344 0 0
1:56 am 01:56 Clear 54 12.2 51 10.6 90 90 ENE 7 11 30 1016 10 16.09344 0 0
2:56 am 02:56 Clear 53 11.7 50 10 89 89 ENE 6 9 30 1016 10 16.09344 0 0
3:56 am 03:56 Clear 52 11.1 50 10 93 93 NE 6 9 29.97 1015 10 16.09344 0 0
4:56 am 04:56 Clear 55 12.8 51 10.6 87 87 E 5 7 29.97 1015 10 16.09344 0 0
5:56 am 05:56 Clear 54 12.2 52 11.1 93 93 NE 8 13 29.97 1015 10 16.09344 0 0
6:56 am 06:56 Clear 55 12.8 52 11.1 90 90 ENE 8 13 29.97 1015 10 16.09344 0 0
7:56 am 07:56 Sunny 56 13.3 52 11.1 87 87 ENE 9 15 29.97 1015 10 16.09344 0 0
8:56 am 08:56 Sunny 57 13.9 52 11.1 83 83 ENE 9 15 29.97 1015 10 16.09344 0 0
9:56 am 09:56 Partly Cloudy 60 15.6 53 11.7 78 78 E 9 15 29.97 1015 10 16.09344 0 0
10:56 am 10:56 Sunny 62 16.7 54 12.2 75 75 ENE 8 13 29.94 1014 10 16.09344 0 0
11:56 am 11:56 Partly Cloudy 65 18.3 55 12.8 70 70 ENE 9 15 29.94 1014 10 16.09344 0 0
12:56 pm 12:56 Mostly Cloudy with Light Rain 65 18.3 56 13.3 73 73 ENE 6 9 29.94 1014 10 16.09344 0.001 0.001
1:56 pm 13:56 Mostly Cloudy with Light Rain 66 18.9 58 14.4 75 75 ENE 8 13 29.91 1013 10 16.09344 0.001 0.001
2:56 pm 14:56 Mostly Cloudy 70 21.1 57 13.9 64 64 E 13 20 29.88 1012 10 16.09344 0.001 0.001
3:56 pm 15:56 Cloudy with Light Rain 68 20 59 15 73 73 ENE 6 9 29.88 1012 10 16.09344 0.001 0.001
4:56 pm 16:56 Cloudy with Rain 63 17.2 60 15.6 90 90 E 5 7 29.85 1011 4 6.437376 0.1 2.54
5:56 pm 17:56 Cloudy with Rain 60 15.6 57 13.9 90 90 ENE 8 13 29.85 1011 9 14.484096 0.11 2.794
6:24 pm 18:24 Cloudy with Light Rain 63 17 59 15 88 88 ENE 10 17 29.85 1011 10 16.09344 0.01 0.254
6:56 pm 18:56 Mostly Cloudy 62 16.7 58 14.4 86 86 E 9 15 29.85 1011 10 16.09344 0.01 0.254
7:56 pm 19:56 Clear 61 16.1 58 14.4 90 90 ENE 9 15 29.83 1010 10 16.09344 0 0
8:56 pm 20:56 Clear 60 15.6 58 14.4 93 93 E 12 19 29.83 1010 10 16.09344 0.001 0.001
9:56 pm 21:56 Mostly Cloudy 62 16.7 60 15.6 93 93 E 14 22 29.83 1010 10 16.09344 0 0
10:56 pm 22:56 Clear 60 15.6 59 15 96 96 E 9 15 29.8 1009 10 16.09344 0 0

Powered by AerisWeather